KK7KHO Weather Reports


Display with metric or nautical units.
time (UTC)temp
F
wind
direction
speed
MPH
gust
MPH
rain 1hr
in
rain 24hr
in
rain mn
in
humidity
%
barometer
mb
20260506002704 70 294 0.0 2.0 0.00 0.00 0.00 67 1013.8
20260506002200 70 294 0.0 2.0 0.00 0.00 0.00 67 1013.8
20260506001656 70 302 0.0 2.0 0.00 0.00 0.00 68 1013.8
20260506001154 68 280 1.0 2.0 0.00 0.00 0.00 71 1014.0
20260506000651 68 99 0.0 1.0 0.00 0.00 0.00 71 1014.0
20260506000148 68 229 1.0 4.0 0.00 0.00 0.00 71 1014.2
20260505235646 68 84 0.0 1.0 0.00 0.00 0.00 70 1014.2
20260505235143 69 256 1.0 2.0 0.00 0.00 0.00 70 1014.1
20260505234640 67 91 1.0 3.0 0.00 0.00 0.00 71 1014.2
20260505234137 67 248 2.0 3.0 0.00 0.00 0.00 71 1014.3
20260505233634 68 162 3.0 3.0 0.00 0.00 0.00 70 1014.3
20260505233131 68 284 2.0 6.0 0.00 0.00 0.00 71 1014.3
20260505232629 69 248 1.0 2.0 0.00 0.00 0.00 70 1014.4
20260505232126 67 282 2.0 4.0 0.00 0.00 0.00 72 1014.3
20260505231623 67 195 2.0 4.0 0.00 0.00 0.00 74 1014.7
20260505231122 68 150 3.0 4.0 0.00 0.00 0.00 71 1014.7
20260505230620 69 349 0.0 1.0 0.00 0.00 0.00 69 1014.7
20260505230115 68 218 1.0 3.0 0.00 0.00 0.00 71 1014.7
20260505225606 68 5 1.0 3.0 0.00 0.00 0.00 72 1014.8
20260505225102 66 307 2.0 4.0 0.00 0.00 0.00 73 1014.8
20260505224559 68 182 4.0 7.0 0.00 0.00 0.00 72 1014.9
20260505224056 66 349 1.0 6.0 0.00 0.00 0.00 75 1014.9
20260505223554 66 53 1.0 6.0 0.00 0.00 0.00 73 1015.1
20260505223049 65 303 2.0 4.0 0.00 0.00 0.00 75 1014.9